Dewpoint
58 58 59 59 59 59 59 59 59 59 59 60 60 60 60 59 59 59 58 58 59 59 59 59 60 60 59 60 60 58 54 20 18 17 16 19 45 55 55 58 58 59 55 27 23 22 15 18 16 19 20 23 22 25 26 32 33 38 35 33 33 32 32 33 31 30 28 26 29 28 28 31 30 31 35 37 40 41 42 43 44 45 45 45 45 45 44 42
59 59 59 59 58 59 59 59 59 59 59 60 60 60 60 60 60 60 59 59 59 59 59 60 60 59 58 58 59 56 39 19 16 16 17 38 54 56 58 57 58 59 54 24 17 19 12 14 20 16 21 23 18 23 25 25 28 33 34 32 28 31 30 31 29 30 27 25 27 25 26 26 24 27 30 33 37 39 40 42 44 43 44 44 44 44 43 41
58 58 58 58 58 58 58 58 58 59 59 59 60 60 60 60 60 59 59 59 59 59 60 60 59 58 58 58 59 54 41 17 16 16 18 48 54 56 56 56 58 52 28 22 22 22 19 14 21 15 17 20 17 22 24 24 29 31 31 27 27 30 27 23 19 28 26 26 25 25 23 23 22 24 27 32 36 39 39 40 43 42 42 44 44 43 43 43
58 57 57 57 57 57 58 58 58 59 59 59 59 60 59 59 59 59 59 59 60 59 59 59 60 58 58 58 57 57 24 19 14 16 19 51 55 55 53 55 54 43 31 32 29 31 22 17 14 14 14 17 17 18 23 24 28 28 28 24 26 27 26 15 15 20 22 25 24 24 24 24 23 23 28 33 33 35 34 29 30 34 39 40 41 39 40 41
58 57 57 57 57 57 57 57 58 58 59 59 59 59 59 59 59 59 59 59 59 59 59 59 59 60 59 59 53 33 20 14 15 17 24 55 52 52 51 57 50 41 32 31 22 24 24 17 11 12 15 15 16 19 18 21 24 28 26 20 21 25 24 17 17 20 23 23 24 24 24 24 23 23 22 25 29 33 35 23 24 24 35 37 35 35 36 35
58 57 57 57 57 57 57 58 58 59 59 59 59 59 59 59 59 58 59 59 59 59 59 59 58 58 58 53 43 31 21 15 25 15 50 53 51 50 48 54 50 41 24 16 14 14 11 10 11 11 9 8 14 13 11 17 18 20 20 15 17 18 20 18 19 21 22 23 23 23 22 23 21 20 18 19 19 21 21 21 22 25 28 29 32 33 33 33
58 57 57 57 57 57 57 58 58 59 59 59 59 59 59 59 59 58 58 58 58 59 59 59 59 57 54 48 39 26 17 16 16 18 44 48 51 45 45 41 45 29 21 17 14 15 12 9 9 14 11 13 11 10 16 15 17 18 15 16 18 19 19 20 20 21 22 22 21 21 22 21 24 25 18 18 18 19 20 21 25 27 28 29 30 29 30 30
57 57 57 57 57 57 57 57 58 58 58 59 59 59 59 59 58 58 58 58 58 59 58 59 58 57 53 37 34 21 15 14 15 20 40 45 33 28 35 26 20 19 17 16 14 12 12 9 5 12 9 10 13 11 20 13 15 18 19 16 18 20 20 20 20 20 20 20 20 20 19 17 18 19 20 17 17 17 18 23 25 26 26 27 28 29 28 27
57 57 57 57 57 57 57 58 58 58 58 59 59 59 59 58 58 58 58 59 59 58 59 58 58 57 55 34 23 17 13 15 16 20 23 22 22 21 23 19 19 16 18 19 16 14 14 13 10 10 12 11 9 20 23 16 16 24 19 17 19 19 19 20 20 20 20 20 21 20 19 18 17 19 17 16 16 16 18 21 24 26 27 26 26 27 27 28
57 57 56 56 57 57 57 57 58 58 58 59 59 58 58 59 58 58 59 59 59 59 58 58 58 52 41 22 30 15 14 16 20 22 22 22 21 21 21 21 18 18 18 17 18 15 13 11 11 10 12 13 15 22 23 23 20 19 18 16 16 17 18 18 19 18 19 19 19 20 19 18 19 18 18 17 14 17 19 22 22 25 25 25 25 25 26 25
57 57 56 56 57 57 57 57 57 58 58 59 58 58 58 58 59 59 59 59 59 59 58 57 57 45 23 20 15 12 16 18 24 21 22 22 21 20 20 21 21 19 18 17 18 18 16 13 14 13 21 16 19 22 23 24 18 17 17 17 17 16 16 16 14 14 15 18 19 20 18 18 17 19 18 19 15 16 20 22 23 21 21 21 22 22 22 23
56 56 56 56 57 57 57 57 58 58 58 59 59 57 58 58 59 59 59 59 59 58 56 52 55 25 17 16 14 14 18 21 27 21 23 22 20 21 21 21 19 18 18 17 18 18 18 16 13 20 14 19 19 22 22 20 17 17 21 18 16 17 14 15 14 15 16 16 17 18 18 19 19 18 14 14 15 15 19 21 21 21 19 19 20 21 22 22
55 55 56 56 56 57 57 57 57 58 58 58 58 57 57 58 58 58 59 59 59 59 54 51 43 33 31 17 17 17 19 24 24 21 22 24 21 22 21 20 19 19 19 19 19 20 22 21 18 17 25 20 24 22 26 21 18 19 18 19 17 19 18 16 16 14 16 16 16 15 12 15 16 14 16 12 15 17 18 19 20 19 19 19 19 19 20 19
55 54 55 56 56 57 57 57 57 57 58 58 58 58 58 57 58 59 57 57 58 59 53 48 34 31 26 18 16 17 21 33 24 19 21 24 22 20 22 21 21 21 22 23 24 26 24 22 24 25 32 25 24 24 21 19 21 17 21 24 17 13 14 17 17 15 14 15 15 15 14 13 16 17 15 13 13 17 20 21 19 19 17 18 18 18 19 19
55 55 56 57 56 57 57 57 57 57 58 58 58 58 57 57 58 58 58 58 57 57 53 50 31 32 22 17 14 17 46 33 18 19 22 24 23 21 20 21 20 21 23 24 24 25 24 24 23 20 23 28 30 27 23 21 20 21 19 18 21 15 20 17 19 17 12 14 14 17 15 12 15 17 15 13 14 14 18 19 19 18 17 17 17 17 16 17
54 55 56 56 56 57 57 57 57 57 58 57 57 57 57 57 56 56 57 56 52 55 46 44 41 23 19 13 15 36 23 18 18 20 21 24 24 23 24 20 21 22 23 22 22 24 24 22 20 24 23 24 22 19 21 20 16 18 16 19 19 14 17 18 19 20 18 15 14 15 14 13 13 16 15 13 13 14 15 17 18 17 16 15 16 17 17 16
54 55 55 56 56 57 57 57 57 57 57 53 54 56 57 57 56 54 51 47 42 41 29 26 34 33 19 19 20 17 18 20 21 18 18 24 24 24 23 20 20 21 23 22 22 23 23 22 25 26 25 18 23 27 17 14 18 11 16 14 20 9 13 10 20 23 21 18 15 17 15 14 16 16 15 13 14 13 14 16 16 16 16 15 15 14 14 15
55 55 56 55 56 56 57 57 57 57 58 57 56 51 43 51 54 49 43 46 46 44 41 33 31 27 21 20 16 17 20 20 21 18 19 23 25 24 24 21 24 21 21 18 19 21 23 21 23 15 18 19 18 16 9 7 6 5 7 7 15 17 18 17 15 23 19 25 20 16 14 15 15 17 14 14 13 13 15 15 15 15 14 14 13 12 13 13
56 56 56 55 56 56 57 57 57 56 56 58 57 55 54 51 48 36 35 34 35 28 21 24 27 15 21 19 20 20 21 22 21 17 18 22 24 24 23 24 22 21 20 16 17 21 24 24 29 17 15 17 17 23 18 20 19 18 16 14 12 9 11 14 22 22 22 19 19 16 16 13 14 15 15 13 12 13 14 15 15 13 13 13 13 14 13 14
56 56 55 55 55 56 57 57 57 55 55 46 46 41 40 31 34 29 34 31 27 28 29 32 23 23 20 20 20 22 23 21 12 14 18 23 24 20 14 19 20 22 27 18 24 19 28 20 19 15 18 20 20 19 19 20 23 23 21 20 16 15 13 21 23 21 23 23 18 17 18 15 15 15 15 13 12 12 13 14 14 16 14 13 12 13 14 13
55 55 55 55 55 56 57 57 56 53 54 51 55 38 22 30 23 20 28 31 30 33 29 28 26 20 19 20 21 21 12 10 13 14 18 23 23 17 11 16 18 17 19 26 25 24 27 17 18 20 18 18 18 20 21 22 23 21 19 16 13 17 7 17 19 20 23 19 13 17 15 15 14 15 15 14 12 12 13 13 14 14 15 14 14 14 14 14
55 54 54 55 55 56 57 56 53 52 49 49 44 31 36 39 37 41 34 21 29 34 26 23 23 20 21 20 22 22 17 11 8 13 18 23 20 14 15 16 19 17 19 25 23 19 16 17 18 18 19 21 19 21 22 21 21 18 10 11 10 10 14 17 22 21 20 20 13 17 15 14 13 15 15 14 13 14 14 14 14 14 14 14 14 15 15 14
55 54 54 55 55 56 56 57 52 50 50 39 42 44 42 44 45 46 40 25 25 30 31 30 21 20 19 22 22 22 13 14 13 13 18 23 20 23 24 14 18 20 18 19 14 13 12 16 16 19 22 20 17 19 19 20 17 8 5 4 4 11 12 10 20 21 20 18 16 16 16 14 15 17 16 15 14 14 14 14 14 15 13 14 14 14 15 14
54 54 54 55 55 56 57 55 54 50 45 46 45 43 43 46 41 37 37 25 24 23 28 27 22 22 20 17 21 19 13 16 17 13 20 22 22 26 23 21 18 19 18 22 19 16 13 18 18 20 24 20 15 19 18 14 8 15 11 8 5 8 9 8 7 16 22 23 21 18 16 13 14 14 15 16 16 15 15 14 14 14 15 15 16 14 15 14
54 54 55 55 55 55 56 50 42 41 43 46 43 43 45 46 46 38 31 23 22 22 27 30 23 19 20 24 23 21 19 20 18 18 23 20 23 24 24 26 22 17 19 22 19 17 15 18 19 16 17 19 18 15 17 12 0 6 11 10 9 13 10 10 14 15 10 11 18 16 -1 -10 11 15 13 16 16 16 16 16 15 15 14 14 13 13 14 14
53 54 54 54 54 55 53 38 33 40 44 40 41 43 43 43 46 45 31 22 13 19 31 19 23 19 23 18 21 26 25 18 18 18 32 21 25 22 26 21 26 14 21 23 18 18 17 19 17 18 16 18 16 11 16 18 2 3 6 15 15 13 13 13 15 16 3 2 14 17 -2 -2 0 4 9 17 17 16 16 17 16 16 16 15 14 13 12 12
54 54 53 53 52 49 39 36 42 41 36 34 43 44 45 46 45 43 22 19 11 21 20 24 23 20 26 21 23 26 8 16 17 19 18 21 23 26 22 21 26 28 28 25 22 13 23 20 17 16 16 17 10 7 13 16 9 9 11 16 15 15 16 16 17 13 8 14 17 15 11 0 3 1 16 19 18 17 18 18 17 16 16 16 15 15 14 13
53 52 53 53 51 44 32 41 40 40 35 40 42 42 44 44 45 44 25 8 -1 29 21 25 19 28 21 22 21 15 14 22 17 16 22 22 24 26 23 24 24 25 25 20 11 18 19 17 17 15 12 10 8 11 15 17 9 8 16 17 17 18 18 16 16 12 12 8 0 10 13 1 4 2 14 17 10 8 13 16 19 19 17 17 18 17 16 16
52 51 53 52 51 47 45 42 44 40 37 42 43 44 43 46 42 30 20 6 7 25 29 24 27 19 24 26 21 25 24 25 14 20 23 25 20 24 19 24 22 22 25 26 9 18 24 22 22 15 12 8 13 14 16 19 7 17 17 20 17 16 17 16 13 12 14 4 1 4 10 0 -8 -11 3 16 11 8 10 12 17 21 20 19 19 19 18 17
51 51 52 50 47 48 45 44 45 45 43 44 46 40 40 38 29 16 8 -2 18 12 24 25 20 18 27 24 23 22 17 21 26 25 24 18 19 19 24 24 24 22 19 22 22 21 19 24 28 21 13 14 15 17 19 18 15 19 16 11 10 6 8 9 10 11 8 -2 2 8 10 3 -7 -17 -19 -1 -6 8 8 10 17 22 23 21 22 21 22 19
50 51 50 49 46 41 40 29 38 44 43 45 46 38 32 32 23 13 -2 7 19 19 27 26 22 29 24 18 13 23 24 25 22 25 21 26 22 27 25 19 26 12 11 12 15 17 21 23 27 20 25 21 19 15 21 20 16 12 3 -4 -1 8 -4 6 7 -2 -6 -11 4 6 10 10 -5 -12 -8 -2 12 17 13 8 7 17 21 24 23 23 22 20
52 49 50 48 45 40 34 34 42 44 45 42 41 40 30 18 20 -0 2 23 14 18 15 19 25 21 21 22 17 20 15 21 24 22 16 16 20 17 18 10 14 7 3 4 4 11 8 10 12 17 24 17 15 9 15 15 17 14 3 1 -13 -14 -10 -8 -11 -10 -8 -10 4 5 2 -6 2 -1 -2 6 3 10 20 23 13 13 17 23 24 24 24 23
51 50 48 47 47 46 46 45 44 45 44 41 40 37 20 18 -3 9 12 15 5 18 18 25 19 18 15 15 12 18 22 14 21 22 23 18 18 16 20 19 17 3 -1 2 7 -0 7 9 12 15 14 18 15 2 2 4 9 3 -4 1 -6 -15 -10 -10 -16 -8 -7 -9 -6 1 -1 -7 -9 -8 -4 -3 -1 9 13 20 22 23 22 23 24 25 23 24
48 47 45 44 45 45 45 44 44 42 39 43 29 25 20 7 -2 25 21 14 6 23 24 19 18 17 15 8 13 16 8 17 19 19 22 12 14 8 16 20 19 16 7 5 -1 1 -1 -3 5 9 5 16 14 11 8 5 8 5 7 2 -1 -5 -7 -11 -12 -10 -2 -4 -6 -2 -1 1 -6 -13 3 6 10 13 15 16 19 22 23 23 24 24 24 24
48 47 46 44 44 42 44 44 43 40 40 40 32 26 9 3 5 16 15 12 15 22 21 21 8 4 3 11 12 17 14 12 15 14 17 11 5 11 10 13 19 14 9 8 11 12 -0 -5 -3 10 13 15 13 17 16 10 6 7 6 1 1 -1 -1 -8 0 -0 4 3 -1 4 -1 6 -3 5 2 2 1 8 14 16 19 19 21 23 23 23 24 24
49 46 44 41 42 38 43 42 41 38 40 39 28 17 13 19 8 10 11 24 22 15 20 16 5 -2 0 5 8 15 18 13 12 13 11 13 15 10 15 16 17 19 18 6 14 6 -2 -9 9 16 14 14 14 17 15 10 5 4 -1 1 0 5 2 6 1 -4 3 -1 -2 5 -5 -6 -2 -7 -6 2 10 8 8 7 13 16 19 21 22 23 22 24
45 44 34 39 39 38 43 41 40 40 39 34 31 14 15 14 11 10 31 21 20 18 12 12 10 0 9 4 4 13 16 14 15 7 -0 14 11 15 15 15 19 20 20 10 12 16 4 -7 5 13 10 13 15 16 13 13 10 2 3 -1 8 7 3 10 -1 -2 -4 -8 -10 -6 1 1 -5 -12 -1 -7 -5 -3 9 9 7 10 15 17 18 21 22 24
46 43 38 37 33 40 43 40 39 40 39 32 21 22 13 18 19 23 25 25 24 14 12 1 12 11 13 11 -1 16 16 10 10 7 1 8 5 17 16 14 18 20 21 23 12 14 10 5 3 9 11 12 14 17 13 12 13 5 1 6 9 2 -4 -2 0 -7 -11 -8 -9 -7 4 5 -2 1 -9 -12 -8 -15 -10 5 10 10 12 13 14 17 20 21
39 43 36 33 38 40 43 40 40 38 36 25 20 21 16 19 24 26 27 26 22 19 5 9 13 13 7 10 12 14 17 9 16 4 -7 5 2 15 12 16 16 21 22 20 17 12 8 5 1 9 9 8 10 10 6 8 8 7 5 4 6 -3 0 -4 -5 3 -7 -8 -3 -1 3 -10 11 7 1 -9 -4 -7 -7 -5 3 8 11 13 16 17 19 22
39 33 30 31 37 42 42 41 40 35 31 23 21 20 20 21 24 29 29 25 19 11 13 14 14 14 12 9 14 15 17 15 13 8 0 6 5 15 15 19 14 20 20 19 16 17 12 0 -3 2 8 5 3 9 3 6 10 8 7 8 6 8 3 6 2 -2 -2 -4 -6 -6 -5 -2 -6 -3 -7 -8 -8 -7 -4 -4 -2 6 11 14 15 17 20 21
37 41 37 36 38 39 41 36 29 26 24 21 22 20 24 21 27 29 30 28 28 28 15 13 11 8 9 12 14 15 17 15 13 14 10 8 9 6 14 17 18 18 18 17 19 16 15 5 3 0 1 2 -0 10 11 8 8 6 9 9 8 5 2 -0 -0 5 3 -3 -2 -7 -3 -0 -3 -4 -5 -6 -5 -4 -3 2 3 7 7 12 14 17 19 21
27 25 26 38 37 41 42 30 26 24 22 20 19 24 22 33 26 26 27 30 27 22 21 19 18 13 12 9 12 15 16 17 15 14 13 11 9 5 14 23 21 20 20 16 17 16 16 9 6 7 3 -1 4 10 11 14 12 11 9 8 11 11 10 2 -2 3 2 4 4 -4 -3 -1 1 -4 -3 -3 -3 0 4 8 8 9 9 11 14 16 19 20
39 30 29 36 36 40 32 22 28 27 26 27 29 27 25 23 23 24 24 25 22 21 18 16 17 17 16 14 17 17 17 17 15 13 11 11 11 11 19 25 26 20 16 16 19 18 18 12 8 7 5 -2 0 8 14 13 12 10 10 7 9 9 12 7 4 5 0 4 -0 1 -1 0 -1 4 3 5 6 8 9 10 11 11 11 12 13 14 14 14
33 30 23 32 38 43 41 21 22 23 25 22 23 22 23 24 21 21 20 21 19 18 15 17 18 19 11 20 18 14 18 15 9 12 10 16 15 21 23 25 24 20 17 18 16 20 9 8 1 2 0 -1 -3 1 4 8 10 9 10 9 9 12 13 8 9 3 2 6 2 -0 -2 1 -2 4 4 6 8 10 9 10 10 9 9 10 11 11 12 13
25 25 34 31 30 33 26 29 26 23 26 20 20 19 19 23 26 23 20 20 24 18 17 16 19 20 19 21 21 20 17 7 3 13 17 17 22 23 22 25 23 19 17 24 26 15 11 7 3 -2 -5 -6 -4 -6 -7 -2 9 7 10 9 8 15 13 9 5 4 3 6 4 2 2 1 0 1 3 5 5 4 3 2 4 8 7 6 8 9 9 10
31 10 25 27 27 28 25 27 27 26 24 21 18 18 19 19 22 25 25 24 24 22 20 19 21 19 19 20 19 19 16 16 10 16 16 17 16 16 22 22 23 22 23 26 25 17 14 11 5 4 3 -2 1 4 1 -0 2 7 12 15 15 12 15 15 10 5 3 6 4 5 5 -1 -2 -0 1 3 3 3 3 3 3 4 7 9 9 8 8 9
30 22 19 9 27 24 18 25 22 22 22 21 16 15 18 19 19 22 26 18 22 21 21 20 19 14 12 16 18 17 18 16 16 16 18 19 19 15 18 23 22 24 26 26 23 18 13 13 13 8 13 7 3 1 4 7 2 2 8 16 17 14 13 13 8 6 10 6 3 6 4 8 4 4 3 4 4 3 3 3 4 5 6 6 6 7 14 8
16 22 25 25 25 15 23 18 25 23 20 20 21 15 15 18 18 23 19 22 25 25 17 19 18 18 11 11 15 14 13 16 15 19 14 15 17 16 18 23 24 26 26 21 20 18 15 12 15 13 14 14 11 8 7 7 6 6 7 8 15 15 13 13 14 11 5 5 3 1 4 6 4 3 3 3 4 4 5 6 7 8 8 9 9 9 9 9
29 24 27 26 23 18 17 13 25 28 26 24 24 18 18 16 18 18 19 21 21 21 20 18 14 17 15 13 9 15 12 9 16 16 15 16 19 18 18 15 25 27 25 21 19 14 15 13 11 11 12 9 9 8 8 7 7 9 12 9 8 10 14 14 12 11 9 8 5 5 5 5 5 5 6 6 7 8 8 8 9 9 9 10 10 9 9 9
23 27 18 27 26 23 22 21 21 24 21 20 19 13 14 16 14 17 20 19 17 18 19 14 12 12 18 14 11 12 13 1 -0 16 18 18 16 18 19 20 19 25 22 23 21 21 15 10 18 13 9 10 7 9 9 7 8 7 6 8 9 9 9 11 12 10 11 9 8 7 8 8 9 9 9 9 10 10 9 9 9 9 9 9 9 8 8 9
30 34 32 24 24 20 25 17 15 14 13 16 9 8 16 16 13 16 17 20 12 14 16 11 11 20 21 17 14 12 12 9 3 8 10 14 14 16 17 17 21 23 23 22 19 15 13 12 9 7 7 9 3 3 4 5 6 7 6 7 6 6 12 10 13 12 11 13 11 11 11 11 10 10 10 9 7 7 7 7 7 7 6 7 7 7 8 9
33 28 32 33 20 19 18 18 14 9 18 8 9 11 14 17 15 16 12 17 19 14 18 15 15 15 19 21 20 17 18 16 16 17 12 11 14 14 13 14 18 24 23 23 15 15 14 12 9 8 7 9 3 4 6 7 8 11 13 10 9 7 7 9 10 11 10 11 13 9 9 9 8 8 4 4 4 5 5 5 5 5 5 6 6 7 8 9